Location: Newark
(49.5647°N, 8.2922°E)
Time: 13:11:40
(UTC+00:00)

Vanguard 3 - All Passes

Search period start: 21 February 2020 00:00
Search period end: 02 March 2020 00:00
Orbit: 508 x 3263 km, 33.3° (Epoch: 20 February)

Date Brightness Start Highest point End Pass type
(mag) Time Alt. Az. Time Alt. Az. Time Alt. Az.
21 Feb - 08:59:31 10° S 09:02:52 14° SSE 09:07:05 10° ESE daylight
21 Feb - 11:07:05 10° SW 11:13:28 29° S 11:23:25 10° ESE daylight
21 Feb - 13:17:21 10° WSW 13:25:35 29° S 13:37:56 10° SE daylight
21 Feb - 15:30:34 10° WSW 15:38:29 18° SSW 15:48:25 10° S daylight
22 Feb - 09:54:52 10° SSW 09:59:46 22° SSE 10:06:52 10° ESE daylight
22 Feb - 12:04:07 10° WSW 12:11:06 29° S 12:21:56 10° SE daylight
22 Feb - 14:15:38 10° WSW 14:23:36 22° SSW 14:34:35 10° SSE daylight
23 Feb - 08:43:40 10° S 08:46:30 14° SSE 08:49:59 10° ESE daylight
23 Feb - 10:51:22 10° SW 10:57:03 26° S 11:05:44 10° ESE daylight
23 Feb - 13:01:45 10° WSW 13:08:57 25° SSW 13:19:33 10° SE daylight
23 Feb - 15:15:50 10° SW 15:21:37 14° SSW 15:28:32 10° S daylight
24 Feb - 09:39:08 10° SSW 09:43:27 20° SSE 09:49:30 10° ESE daylight
24 Feb - 11:48:30 10° SW 11:54:39 26° S 12:03:55 10° SE daylight
24 Feb - 14:00:22 10° WSW 14:06:55 18° SSW 14:15:34 10° SSE daylight
25 Feb - 08:27:55 10° S 08:30:13 13° SSE 08:32:57 10° SE daylight
25 Feb - 10:35:46 10° SW 10:40:45 23° S 10:48:05 10° SE daylight
25 Feb - 12:46:20 10° WSW 12:52:27 21° SSW 13:01:04 10° SSE daylight
25 Feb - 15:03:54 10° SW 15:04:52 10° SSW 15:05:52 10° SSW daylight
26 Feb - 09:23:31 10° SSW 09:27:13 18° SSE 09:32:13 10° SE daylight
26 Feb - 11:33:02 10° SW 11:38:19 22° S 11:45:53 10° SE daylight
26 Feb - 13:45:41 10° SW 13:50:21 14° SSW 13:56:03 10° S daylight
27 Feb - 08:12:16 10° S 08:14:00 12° SSE 08:15:57 10° SE daylight
27 Feb - 10:20:16 10° SW 10:24:31 20° S 10:30:28 10° SE daylight
27 Feb - 12:31:14 10° SW 12:36:03 16° SSW 12:42:23 10° SSE daylight
28 Feb - 09:07:58 10° SSW 09:11:03 16° SSE 09:15:00 10° SE daylight
28 Feb - 11:17:47 10° SW 11:22:03 17° S 11:27:47 10° SSE daylight
29 Feb - 07:56:52 10° S 07:57:49 11° SSE 07:58:51 10° SSE daylight
29 Feb - 10:04:55 10° SW 10:08:21 16° S 10:12:51 10° SE daylight
29 Feb - 12:16:51 10° SW 12:19:43 12° SSW 12:23:08 10° S daylight
01 Mar - 08:52:34 10° SSW 08:54:56 14° S 08:57:46 10° SE daylight
01 Mar - 11:02:55 10° SW 11:05:51 13° S 11:09:26 10° SSE daylight
